1485871200.84,40191,11.19,73222.3,-2.33,-24.41,-23.75,0,*5F
1485871202.08,40192,11.19,73220.8,-2.31,-24.35,-23.69,0,*50
1485871203.37,40193,11.19,73222.8,-2.29,-24.25,-23.69,0,*59
1485871204.66,40194,11.19,73218.5,-2.33,-24.25,-23.65,0,*59
1485871205.93,40195,11.19,73222.5,-2.33,-24.25,-23.59,0,*57
1485871207.2,40196,11.19,73218.5,-2.31,-24.25,-23.69,0,*55
1485871208.46,40197,11.19,73222.8,-2.33,-24.41,-23.75,0,*59
1485871209.71,40198,11.19,73218.8,-2.33,-24.47,-23.75,0,*50
1485871210.98,40199,11.13,73218.0,-2.33,-24.41,-23.75,0,*57
1485871212.21,40200,11.19,73222.8,-2.31,-24.35,-23.69,0,*58
1485871213.48,40201,11.19,73222.3,-2.33,-24.41,-23.79,0,*59
1485871214.73,40202,11.19,73222.3,-2.31,-24.41,-23.75,0,*54
1485871215.97,40203,11.19,73224.3,-2.33,-24.47,-23.75,0,*51
1485871217.21,40204,11.19,73222.0,-2.31,-24.35,-23.69,0,*5C
1485871218.45,40205,11.19,73222.0,-2.31,-24.51,-23.69,0,*5F
1485871219.69,40206,11.19,73220.8,-2.31,-24.51,-23.69,0,*5C
1485871220.96,40207,11.19,73220.5,-2.33,-24.41,-23.75,0,*53
1485871222.23,40208,11.19,73222.8,-2.31,-24.41,-23.53,0,*5A
1485871223.47,40209,11.19,73222.0,-2.33,-24.31,-23.59,0,*54
1485871224.72,40210,11.19,73220.3,-2.31,-24.25,-23.43,0,*50
1485871225.96,40211,11.13,73218.0,-2.33,-24.31,-23.59,0,*5D
1485871227.21,40212,11.19,73220.5,-2.31,-24.25,-23.39,0,*5F
1485871228.49,40213,11.19,73216.3,-2.33,-24.41,-23.65,0,*57
1485871229.74,40214,11.19,73220.5,-2.31,-24.21,-23.39,0,*5D
1485871231.0,40215,11.19,73218.8,-2.33,-24.31,-23.49,0,*58
1485871232.25,40216,11.19,73222.3,-2.31,-24.21,-23.43,0,*52
1485871233.5,40217,11.19,73218.5,-2.31,-24.25,-23.59,0,*5C
1485871234.74,40218,11.19,73220.5,-2.31,-24.51,-23.69,0,*53
1485871235.98,40219,11.19,73220.0,-2.31,-24.35,-23.69,0,*50
1485871237.25,40220,11.19,73220.0,-2.31,-24.25,-23.53,0,*52
1485871238.5,40221,11.19,73222.3,-2.31,-24.25,-23.43,0,*52
1485871239.76,40222,11.19,73222.8,-2.33,-24.47,-23.65,0,*53
1485871241.06,40223,11.19,73216.8,-2.33,-24.41,-23.49,0,*5A
1485871242.3,40224,11.19,73222.0,-2.31,-24.21,-23.39,0,*5E
1485871243.57,40225,11.19,73220.3,-2.31,-24.25,-23.23,0,*50
1485871244.85,40226,11.19,73220.0,-2.31,-24.21,-23.23,0,*57
1485871246.1,40227,11.13,73218.0,-2.31,-24.25,-23.43,0,*54
1485871247.35,40228,11.19,73220.5,-2.31,-24.25,-23.43,0,*5B
1485871248.61,40229,11.19,73220.0,-2.29,-24.35,-23.53,0,*53
1485871249.85,40230,11.19,73220.3,-2.29,-24.35,-23.39,0,*57
1485871251.11,40231,11.19,73220.3,-2.29,-24.25,-23.39,0,*57
1485871252.37,40232,11.19,73222.8,-2.29,-24.41,-23.59,0,*50
1485871253.63,40233,11.19,73222.8,-2.29,-24.57,-23.69,0,*55
1485871254.85,40234,11.19,73222.5,-2.31,-24.51,-23.59,0,*5E
1485871256.09,40235,11.19,73220.5,-2.29,-24.51,-23.59,0,*56
1485871257.32,40236,11.13,73216.8,-2.29,-24.57,-23.59,0,*53
1485871258.6,40237,11.13,73218.5,-2.29,-24.67,-23.69,0,*52
1485871259.89,40238,11.13,73218.0,-2.29,-24.41,-23.53,0,*50
1485871261.13,40239,11.19,73220.3,-2.29,-24.51,-23.59,0,*5A
1485871262.38,40240,11.19,73220.8,-2.29,-24.57,-23.53,0,*58
1485871263.62,40241,11.19,73222.8,-2.29,-24.51,-23.59,0,*55
1485871264.9,40242,11.19,73220.5,-2.29,-24.67,-23.69,0,*50
1485871266.12,40243,11.19,73218.8,-2.31,-24.51,-23.59,0,*5E
1485871267.39,40244,11.19,73222.0,-2.31,-24.71,-23.69,0,*58
1485871268.63,40245,11.19,73216.8,-2.33,-24.77,-23.75,0,*50
1485871269.89,40246,11.19,73216.3,-2.31,-24.67,-23.69,0,*5D
1485871271.16,40247,11.19,73220.5,-2.31,-24.71,-23.69,0,*5B
1485871272.43,40248,11.19,73220.5,-2.31,-24.71,-23.69,0,*54
1485871273.69,40249,11.19,73220.0,-2.33,-24.61,-23.65,0,*5A
1485871274.93,40250,11.19,73220.8,-2.31,-24.51,-23.53,0,*56
1485871276.17,40251,11.19,73218.8,-2.31,-24.57,-23.53,0,*51
1485871277.41,40252,11.19,73222.0,-2.33,-24.57,-23.43,0,*51
1485871278.65,40253,11.19,73218.8,-2.31,-24.41,-23.39,0,*58
1485871279.91,40254,11.19,73218.8,-2.31,-24.83,-23.69,0,*54
1485871281.15,40255,11.19,73220.3,-2.31,-24.67,-23.59,0,*5C
1485871282.41,40256,11.19,73222.0,-2.31,-24.67,-23.53,0,*55
1485871283.65,40257,11.19,73218.5,-2.31,-24.57,-23.53,0,*57
1485871284.88,40258,11.19,73224.3,-2.31,-24.67,-23.59,0,*51
1485871286.15,40259,11.19,73218.5,-2.33,-24.71,-23.59,0,*55
1485871287.45,40260,11.19,73222.5,-2.33,-24.71,-23.65,0,*50
1485871288.69,40261,11.19,73218.8,-2.33,-24.57,-23.43,0,*51
1485871289.93,40262,11.13,73216.3,-2.33,-24.57,-23.43,0,*52
1485871291.18,40263,11.19,73220.0,-2.33,-24.47,-23.43,0,*52
1485871292.45,40264,11.19,73218.0,-2.31,-24.41,-23.29,0,*5D
1485871293.71,40265,11.19,73218.3,-2.33,-24.47,-23.29,0,*58
1485871294.97,40266,11.19,73220.0,-2.33,-24.57,-23.33,0,*51
1485871296.27,40267,11.19,73222.0,-2.33,-24.71,-23.49,0,*59
1485871297.54,40268,11.19,73222.5,-2.31,-24.71,-23.53,0,*5F
1485871298.8,40269,11.19,73218.8,-2.31,-24.67,-23.53,0,*59
1485871300.06,40270,11.13,73216.8,-2.31,-24.67,-23.53,0,*51
1485871301.27,40271,11.19,73218.8,-2.31,-24.57,-23.39,0,*5F
1485871302.49,40272,11.19,73220.0,-2.31,-24.57,-23.43,0,*51
1485871303.79,40273,11.19,73222.0,-2.33,-24.71,-23.49,0,*5C
1485871305.01,40274,11.19,73220.0,-2.31,-24.51,-23.39,0,*5C
1485871306.25,40275,11.19,73220.5,-2.31,-24.67,-23.39,0,*58
1485871307.48,40276,11.19,73218.0,-2.31,-24.67,-23.39,0,*5B
1485871308.72,40277,11.19,73220.0,-2.31,-24.57,-23.29,0,*58
1485871309.93,40278,11.19,73220.3,-2.31,-24.57,-23.39,0,*56
1485871311.14,40279,11.19,73220.5,-2.31,-24.57,-23.39,0,*57
1485871312.39,40280,11.19,73216.8,-2.31,-24.51,-23.23,0,*5C
1485871313.67,40281,11.19,73222.0,-2.31,-24.41,-23.23,0,*5C
1485871314.89,40282,11.13,73216.3,-2.31,-24.51,-23.09,0,*56
1485871316.14,40283,11.19,73222.5,-2.31,-24.57,-23.23,0,*59
1485871317.4,40284,11.19,73222.5,-2.33,-24.77,-23.49,0,*52
1485871318.64,40285,11.19,73218.8,-2.31,-24.67,-23.39,0,*57
1485871319.89,40286,11.19,73218.8,-2.31,-24.71,-23.43,0,*5E
1485871321.13,40287,11.19,73220.3,-2.31,-24.87,-23.39,0,*5B
1485871322.39,40288,11.19,73218.8,-2.31,-24.67,-23.29,0,*5B
1485871323.64,40289,11.19,73220.3,-2.31,-24.71,-23.43,0,*51
1485871324.88,40290,11.19,73218.8,-2.31,-24.77,-23.29,0,*53
1485871326.12,40291,11.19,73220.8,-2.31,-24.71,-23.39,0,*55
1485871327.39,40292,11.19,73218.0,-2.31,-24.67,-23.23,0,*5A
1485871328.61,40293,11.19,73222.0,-2.31,-24.51,-23.13,0,*5D
1485871329.89,40294,11.19,73218.3,-2.31,-24.71,-23.23,0,*5B
1485871331.16,40295,11.19,73220.3,-2.31,-24.71,-23.29,0,*50
1485871332.39,40296,11.13,73216.3,-2.31,-24.51,-23.09,0,*53
1485871333.61,40297,11.19,73222.0,-2.31,-24.51,-23.09,0,*52
1485871334.86,40298,11.19,73218.5,-2.31,-24.41,-22.93,0,*5E
1485871336.1,40299,11.13,73218.3,-2.33,-24.61,-23.13,0,*56
1485871337.34,40300,11.19,73222.0,-2.31,-24.67,-23.13,0,*53
1485871338.61,40301,11.19,73222.0,-2.31,-24.67,-23.23,0,*51
1485871339.89,40302,11.19,73218.0,-2.33,-24.87,-23.29,0,*54
1485871341.16,40303,11.19,73216.5,-2.31,-24.71,-23.29,0,*5E
1485871342.44,40304,11.19,73222.0,-2.33,-24.87,-23.29,0,*52
1485871343.69,40305,11.19,73220.3,-2.31,-24.71,-23.13,0,*51
1485871344.93,40306,11.19,73216.8,-2.33,-24.57,-22.97,0,*59
1485871346.2,40307,11.19,73220.8,-2.29,-24.41,-22.93,0,*50
1485871347.49,40308,11.19,73218.8,-2.29,-24.41,-22.77,0,*55
1485871348.73,40309,11.19,73222.5,-2.31,-24.41,-22.87,0,*52
1485871349.95,40310,11.19,73220.0,-2.31,-24.35,-22.87,0,*59
1485871351.2,40311,11.19,73220.8,-2.31,-24.41,-22.93,0,*5E
1485871352.42,40312,11.19,73218.5,-2.31,-24.51,-22.93,0,*5C
1485871353.69,40313,11.19,73218.8,-2.31,-24.67,-23.03,0,*50
1485871354.99,40314,11.19,73220.3,-2.29,-24.71,-23.03,0,*59
1485871356.25,40315,11.19,73220.3,-2.29,-24.67,-22.93,0,*57
1485871357.54,40316,11.19,73222.0,-2.29,-24.67,-23.03,0,*5C
1485871358.78,40317,11.19,73218.3,-2.29,-24.57,-22.93,0,*56
1485871360.01,40318,11.19,73218.0,-2.29,-24.57,-22.93,0,*59
1485871361.31,40319,11.13,73218.0,-2.29,-24.41,-22.77,0,*55
1485871362.55,40320,11.19,73216.8,-2.31,-24.35,-22.77,0,*55
1485871363.77,40321,11.19,73220.8,-2.31,-24.51,-22.87,0,*59
1485871365.07,40322,11.19,73222.3,-2.29,-24.71,-23.03,0,*5C
1485871366.33,40323,11.19,73216.5,-2.29,-24.67,-22.93,0,*52
1485871367.59,40324,11.19,73216.5,-2.29,-24.67,-22.93,0,*55
1485871368.86,40325,11.19,73222.0,-2.29,-24.67,-22.93,0,*54
1485871370.11,40326,11.19,73216.5,-2.29,-24.67,-22.87,0,*52
1485871371.33,40327,11.19,73216.8,-2.27,-24.57,-22.93,0,*5B
1485871372.59,40328,11.19,73218.5,-2.29,-24.87,-23.13,0,*5E
1485871373.86,40329,11.19,73220.3,-2.29,-24.83,-23.09,0,*50
1485871375.11,40330,11.19,73220.3,-2.29,-24.87,-23.13,0,*57
1485871376.38,40331,11.19,73218.0,-2.29,-24.87,-23.09,0,*5D
1485871377.64,40332,11.19,73216.8,-2.29,-24.83,-22.93,0,*58
1485871378.93,40333,11.19,73220.8,-2.29,-24.83,-23.03,0,*51
1485871380.19,40334,11.19,73216.8,-2.29,-25.03,-23.13,0,*5E
1485871381.45,40335,11.19,73218.5,-2.29,-25.03,-23.13,0,*5F
1485871382.71,40336,11.19,73222.0,-2.29,-24.87,-22.93,0,*58
1485871383.97,40337,11.19,73222.5,-2.29,-24.87,-23.09,0,*5B
1485871385.21,40338,11.19,73222.8,-2.29,-24.97,-23.09,0,*55
1485871386.47,40339,11.19,73218.0,-2.29,-25.03,-23.13,0,*53
1485871387.7,40340,11.19,73218.8,-2.29,-24.97,-23.09,0,*5A
1485871388.97,40341,11.19,73220.5,-2.31,-24.87,-23.03,0,*59
1485871390.18,40342,11.19,73220.5,-2.31,-24.97,-23.09,0,*51
1485871391.47,40343,11.19,73220.8,-2.29,-24.87,-22.77,0,*50
1485871392.7,40344,11.19,73220.3,-2.29,-25.13,-23.13,0,*58
1485871393.94,40345,11.19,73216.3,-2.29,-24.97,-23.09,0,*5F
1485871395.22,40346,11.19,73218.3,-2.29,-25.03,-23.03,0,*5A
1485871396.46,40347,11.19,73220.8,-2.27,-25.03,-22.97,0,*59
1485871397.73,40348,11.19,73220.5,-2.29,-24.83,-22.93,0,*55
1485871398.98,40349,11.19,73216.8,-2.29,-24.97,-23.03,0,*59
1485871400.22,40350,11.19,73222.0,-2.31,-24.97,-23.03,0,*58
1485871401.46,40351,11.19,73222.3,-2.33,-25.09,-23.09,0,*57
1485871402.7,40352,11.19,73222.0,-2.31,-24.87,-22.93,0,*53
1485871403.99,40353,11.19,73220.5,-2.29,-25.03,-23.03,0,*5E
1485871405.25,40354,11.19,73222.8,-2.31,-25.03,-23.03,0,*50
1485871406.46,40355,11.19,73222.3,-2.31,-24.97,-22.87,0,*50
1485871407.7,40356,11.13,73218.5,-2.31,-25.03,-23.09,0,*58
1485871408.96,40357,11.19,73222.5,-2.29,-25.13,-23.03,0,*5B
1485871410.23,40358,11.19,73220.5,-2.31,-24.87,-22.77,0,*53
1485871411.49,40359,11.19,73220.8,-2.33,-25.03,-22.93,0,*57
1485871412.76,40360,11.19,73220.3,-2.31,-24.87,-22.77,0,*58
1485871414.02,40361,11.19,73222.3,-2.31,-24.87,-22.77,0,*59
1485871415.26,40362,11.19,73216.8,-2.31,-25.03,-22.93,0,*5D
1485871416.49,40363,11.19,73222.8,-2.33,-24.93,-22.83,0,*57
1485871417.75,40364,11.19,73220.5,-2.31,-24.87,-22.77,0,*5C
1485871419.0,40365,11.19,73222.8,-2.31,-24.83,-22.63,0,*5C
1485871420.29,40366,11.19,73216.0,-2.33,-24.87,-22.77,0,*5C
1485871421.54,40367,11.19,73220.8,-2.31,-24.87,-22.73,0,*5B
1485871422.78,40368,11.19,73222.0,-2.31,-24.97,-22.77,0,*51
1485871424.05,40369,11.19,73220.8,-2.31,-25.03,-22.77,0,*5C
1485871425.28,40370,11.13,73218.5,-2.33,-25.09,-22.93,0,*56
1485871426.55,40371,11.19,73220.5,-2.31,-24.83,-22.77,0,*5C
1485871427.8,40372,11.19,73220.3,-2.31,-24.71,-22.63,0,*57
1485871429.06,40373,11.19,73220.0,-2.31,-24.87,-22.73,0,*5E
1485871430.3,40374,11.19,73222.3,-2.31,-25.03,-22.87,0,*5F
1485871431.57,40375,11.19,73222.8,-2.31,-25.03,-22.77,0,*51
1485871432.78,40376,11.19,73224.3,-2.31,-24.97,-22.63,0,*5B
1485871434.01,40377,11.19,73222.8,-2.31,-24.97,-22.73,0,*5B
1485871435.27,40378,11.19,73218.0,-2.31,-25.03,-22.73,0,*58
1485871436.54,40379,11.19,73222.8,-2.31,-24.83,-22.73,0,*50
1485871437.78,40380,11.19,73222.5,-2.31,-24.83,-22.63,0,*57
1485871439.05,40381,11.19,73220.5,-2.31,-24.67,-22.47,0,*5A
1485871440.3,40382,11.19,73222.5,-2.31,-24.71,-22.57,0,*5F
1485871441.54,40383,11.19,73218.5,-2.31,-24.97,-22.73,0,*50
1485871442.79,40384,11.19,73222.5,-2.33,-25.09,-22.73,0,*53
1485871444.0,40385,11.19,73222.3,-2.31,-24.97,-22.63,0,*57
1485871445.28,40386,11.19,73222.3,-2.31,-24.83,-22.47,0,*57
1485871446.55,40387,11.19,73222.8,-2.33,-24.71,-22.53,0,*5C
1485871447.82,40388,11.19,73218.5,-2.31,-24.83,-22.47,0,*59
1485871449.04,40389,11.19,73222.0,-2.31,-24.97,-22.57,0,*5C
1485871450.28,40390,11.19,73218.0,-2.31,-25.03,-22.63,0,*5F
1485871451.54,40391,11.19,73220.5,-2.31,-25.03,-22.73,0,*5F
1485871452.8,40392,11.19,73222.5,-2.33,-25.03,-22.57,0,*58
1485871454.04,40393,11.13,73218.0,-2.33,-25.09,-22.63,0,*54
1485871455.3,40394,11.19,73222.8,-2.31,-24.67,-22.31,0,*5F
1485871456.58,40395,11.19,73220.3,-2.31,-24.71,-22.31,0,*59
1485871457.84,40396,11.19,73218.8,-2.29,-24.87,-22.57,0,*5A
1485871459.11,40397,11.13,73216.0,-2.31,-24.87,-22.47,0,*53
1485871460.38,40398,11.13,73218.0,-2.31,-24.83,-22.47,0,*58
1485871461.63,40399,11.19,73220.0,-2.29,-24.87,-22.41,0,*52
1485871462.89,40400,11.19,73222.3,-2.29,-24.87,-22.57,0,*52
1485871464.18,40401,11.19,73222.8,-2.29,-24.87,-22.47,0,*52
1485871465.45,40402,11.19,73220.5,-2.31,-24.83,-22.31,0,*5D
1485871466.72,40403,11.19,73220.3,-2.31,-24.87,-22.31,0,*58
1485871467.95,40404,11.19,73222.3,-2.31,-24.87,-22.41,0,*58
1485871469.21,40405,11.19,73218.8,-2.29,-24.83,-22.27,0,*54
1485871470.47,40406,11.19,73218.5,-2.29,-24.87,-22.41,0,*53
1485871471.76,40407,11.19,73222.5,-2.29,-24.83,-22.31,0,*51
1485871473.05,40408,11.19,73216.5,-2.29,-24.67,-22.17,0,*50
1485871474.26,40409,11.19,73222.5,-2.27,-24.51,-22.07,0,*5B
1485871475.5,40410,11.19,73222.5,-2.29,-24.51,-22.07,0,*5D
1485871476.76,40411,11.19,73218.3,-2.29,-24.67,-22.11,0,*5E
1485871478.05,40412,11.19,73220.0,-2.29,-24.67,-22.17,0,*5B
1485871479.27,40413,11.19,73218.8,-2.27,-24.51,-22.11,0,*57
1485871480.51,40414,11.19,73224.3,-2.29,-24.57,-22.11,0,*58
1485871481.8,40415,11.19,73216.8,-2.29,-24.83,-22.31,0,*52
1485871483.03,40416,11.19,73224.3,-2.27,-24.83,-22.37,0,*59
1485871484.25,40417,11.19,73222.8,-2.27,-24.77,-22.11,0,*57
1485871485.53,40418,11.19,73222.0,-2.29,-24.67,-22.17,0,*51
1485871486.77,40419,11.19,73222.3,-2.27,-24.67,-22.11,0,*58
1485871488.01,40420,11.19,73222.0,-2.27,-24.67,-22.07,0,*55
1485871489.27,40421,11.19,73218.8,-2.29,-24.71,-22.27,0,*5F
1485871490.54,40422,11.19,73220.3,-2.29,-24.71,-22.07,0,*5E
1485871491.75,40423,11.19,73222.3,-2.27,-24.61,-22.07,0,*50
1485871493.04,40424,11.19,73220.8,-2.29,-24.67,-21.97,0,*55
1485871494.31,40425,11.19,73220.8,-2.29,-24.71,-22.11,0,*5E
1485871495.52,40426,11.19,73220.8,-2.27,-24.61,-22.07,0,*55
1485871496.73,40427,11.19,73222.5,-2.27,-24.77,-22.07,0,*53
1485871497.99,40428,11.19,73224.3,-2.29,-24.83,-22.11,0,*5E
1485871499.26,40429,11.19,73222.0,-2.29,-24.71,-22.07,0,*55
1485871500.47,40430,11.19,73218.3,-2.27,-24.77,-22.11,0,*52
1485871501.77,40431,11.19,73222.8,-2.29,-24.83,-22.17,0,*50
1485871503.03,40432,11.19,73222.3,-2.29,-24.83,-22.07,0,*52
1485871504.26,40433,11.19,73220.0,-2.27,-24.67,-22.03,0,*53
1485871505.53,40434,11.19,73220.8,-2.29,-24.71,-22.07,0,*59
1485871506.77,40435,11.19,73220.3,-2.27,-24.67,-22.07,0,*51
1485871508.0,40436,11.19,73222.0,-2.27,-24.67,-22.03,0,*56
1485871509.22,40437,11.19,73220.8,-2.27,-24.77,-22.07,0,*52
1485871510.43,40438,11.19,73220.0,-2.27,-24.77,-22.03,0,*59
1485871511.66,40439,11.19,73222.3,-2.27,-24.67,-22.03,0,*59
1485871512.91,40440,11.19,73222.3,-2.23,-24.61,-21.87,0,*5A
1485871514.15,40441,11.19,73220.0,-2.27,-24.51,-21.87,0,*5C
1485871515.37,40442,11.19,73216.0,-2.27,-24.47,-21.77,0,*57
1485871516.58,40443,11.19,73222.5,-2.27,-24.47,-21.73,0,*52
1485871517.8,40444,11.19,73218.8,-2.27,-24.47,-21.73,0,*55
1485871519.01,40445,11.19,73220.3,-2.23,-24.35,-21.63,0,*54
1485871520.23,40446,11.19,73224.0,-2.23,-24.31,-21.63,0,*53
1485871521.46,40447,11.19,73220.5,-2.23,-24.31,-21.57,0,*55
1485871522.73,40448,11.19,73222.0,-2.23,-24.25,-21.57,0,*5F
1485871524.02,40449,11.19,73222.8,-2.21,-24.25,-21.53,0,*58
1485871525.28,40450,11.19,73220.0,-2.21,-24.15,-21.43,0,*52
1485871526.54,40451,11.19,73220.3,-2.21,-24.11,-21.39,0,*5A
1485871527.8,40452,11.19,73220.0,-2.21,-24.11,-21.39,0,*59
1485871529.06,40453,11.19,73222.0,-2.21,-24.15,-21.39,0,*5C
1485871530.29,40454,11.19,73220.8,-2.19,-24.15,-21.39,0,*50
1485871531.52,40455,11.19,73222.5,-2.19,-24.15,-21.43,0,*5C
1485871532.78,40456,11.19,73220.0,-2.19,-24.25,-21.53,0,*5D
1485871534.04,40457,11.19,73220.0,-2.17,-24.35,-21.53,0,*53
1485871535.3,40458,11.19,73224.3,-2.17,-24.25,-21.47,0,*58
1485871536.54,40459,11.19,73220.3,-2.19,-24.25,-21.43,0,*53
1485871537.8,40460,11.19,73222.8,-2.17,-24.21,-21.39,0,*5E
1485871539.08,40461,11.19,73222.0,-2.17,-24.21,-21.33,0,*55
1485871540.37,40462,11.19,73222.5,-2.17,-24.21,-21.33,0,*56
1485871541.6,40463,11.19,73220.5,-2.19,-24.25,-21.43,0,*5A
1485871542.89,40464,11.19,73220.0,-2.17,-24.21,-21.33,0,*50
1485871544.17,40465,11.19,73222.3,-2.17,-24.11,-21.33,0,*52
1485871545.45,40466,11.19,73222.0,-2.17,-24.11,-21.33,0,*51
1485871546.71,40467,11.19,73220.3,-2.15,-24.11,-21.33,0,*52
1485871547.95,40468,11.19,73220.5,-2.15,-24.11,-21.39,0,*57
1485871549.23,40469,11.19,73222.8,-2.13,-24.21,-21.33,0,*59
1485871550.52,40470,11.19,73218.3,-2.13,-24.21,-21.33,0,*51
1485871551.8,40471,11.19,73222.5,-2.13,-24.21,-21.33,0,*50
1485871553.07,40472,11.19,73222.8,-2.15,-24.21,-21.53,0,*53
1485871554.33,40473,11.19,73222.5,-2.15,-24.67,-21.67,0,*57
1485871555.56,40474,11.19,73220.0,-2.13,-24.61,-21.63,0,*54
1485871556.84,40475,11.19,73222.0,-2.13,-24.15,-21.33,0,*53
1485871558.1,40476,11.19,73220.3,-2.13,-23.99,-21.13,0,*51
1485871559.31,40477,11.19,73220.5,-2.15,-24.05,-21.13,0,*54
1485871560.59,40478,11.19,73220.0,-2.13,-23.99,-21.03,0,*5E
1485871561.88,40479,11.19,73220.5,-2.13,-23.99,-21.03,0,*5F
1485871563.14,40480,11.19,73222.3,-2.09,-23.95,-20.99,0,*5C
1485871564.39,40481,11.19,73220.3,-2.11,-23.99,-21.09,0,*50
1485871565.65,40482,11.19,73220.5,-2.11,-23.99,-21.13,0,*58
1485871566.93,40483,11.19,73220.0,-2.11,-24.15,-21.27,0,*5D
1485871568.19,40484,11.19,73222.5,-2.11,-23.99,-21.09,0,*55
1485871569.42,40485,11.19,73224.3,-2.09,-23.99,-21.09,0,*5D
1485871570.65,40486,11.19,73222.3,-2.09,-23.99,-21.13,0,*55
1485871571.88,40487,11.19,73222.5,-2.09,-23.99,-21.09,0,*5F
1485871573.11,40488,11.19,73220.5,-2.09,-24.11,-21.09,0,*57
1485871574.33,40489,11.19,73222.3,-2.09,-24.11,-21.09,0,*56
1485871575.6,40490,11.19,73220.0,-2.07,-24.05,-21.03,0,*5F
1485871576.83,40491,11.19,73220.8,-2.09,-23.99,-21.09,0,*58
1485871578.06,40492,11.19,73220.5,-2.09,-24.11,-21.13,0,*57
1485871579.32,40493,11.19,73220.8,-2.07,-24.11,-21.17,0,*5C
1485871580.59,40494,11.19,73220.3,-2.07,-24.05,-21.03,0,*5B
1485871581.81,40495,11.19,73222.8,-2.05,-24.05,-20.93,0,*50
1485871583.05,40496,11.19,73222.3,-2.07,-24.05,-20.93,0,*51
1485871584.29,40497,11.19,73224.0,-2.05,-24.05,-21.03,0,*5A
1485871585.55,40498,11.19,73220.8,-2.05,-23.95,-21.03,0,*5B
1485871586.77,40499,11.19,73222.3,-2.05,-23.89,-20.89,0,*54
1485871587.99,40500,11.19,73220.8,-2.05,-23.89,-20.89,0,*55
1485871589.22,40501,11.19,73222.3,-2.05,-23.95,-20.93,0,*52
1485871590.46,40502,11.19,73222.8,-2.05,-23.95,-20.93,0,*51
1485871591.68,40503,11.19,73216.8,-2.01,-23.89,-20.89,0,*52
1485871592.94,40504,11.19,73220.0,-2.01,-23.85,-20.83,0,*53
1485871594.17,40505,11.19,73222.8,-2.01,-23.89,-20.83,0,*5E
1485871595.38,40506,11.19,73220.8,-2.01,-23.89,-20.89,0,*57
1485871596.64,40507,11.19,73220.3,-1.99,-23.89,-20.83,0,*5E
1485871597.87,40508,11.19,73224.8,-2.01,-23.85,-20.69,0,*5B
1485871599.1,40509,11.19,73220.0,-2.01,-23.85,-20.69,0,*5A
1485871600.34,40510,11.19,73224.0,-1.99,-23.89,-20.89,0,*52
1485871601.6,40511,11.19,73220.8,-1.99,-23.89,-20.83,0,*59
1485871602.89,40512,11.19,73222.5,-1.99,-23.99,-20.99,0,*50
1485871604.17,40513,11.19,73222.3,-1.99,-23.99,-21.03,0,*53
1485871605.44,40514,11.19,73222.3,-1.99,-24.05,-21.03,0,*56
1485871606.7,40515,11.19,73222.0,-1.99,-23.99,-20.89,0,*56
1485871607.96,40516,11.19,73222.5,-2.01,-23.85,-20.83,0,*50
1485871609.18,40517,11.19,73222.8,-1.97,-23.69,-20.69,0,*5B
1485871610.44,40518,11.19,73224.0,-1.97,-23.85,-20.83,0,*52
1485871611.69,40519,11.19,73220.3,-1.97,-23.99,-20.99,0,*55
1485871612.95,40520,11.19,73222.0,-1.97,-23.95,-20.79,0,*5D
1485871614.2,40521,11.19,73222.8,-1.97,-23.95,-20.79,0,*5C
1485871615.48,40522,11.19,73220.3,-1.95,-23.85,-20.79,0,*5C
1485871616.76,40523,11.19,73220.3,-1.95,-23.85,-20.79,0,*5D
1485871617.99,40524,11.19,73222.5,-1.97,-23.85,-20.69,0,*59
1485871619.21,40525,11.19,73222.8,-1.97,-23.99,-21.09,0,*52
1485871620.5,40526,11.19,73222.0,-1.95,-23.95,-20.99,0,*57
1485871621.78,40527,11.19,73222.8,-1.95,-23.85,-20.83,0,*5C
1485871623.07,40528,11.19,73222.3,-1.95,-23.95,-20.83,0,*52
1485871624.33,40529,11.19,73222.8,-1.95,-23.95,-20.93,0,*52
1485871625.54,40530,11.19,73222.5,-1.93,-23.89,-20.89,0,*5A
1485871626.82,40531,11.19,73222.5,-1.95,-23.95,-20.79,0,*5F
1485871628.04,40532,11.19,73222.5,-1.93,-23.79,-20.63,0,*53
1485871629.25,40533,11.19,73220.8,-1.93,-23.79,-20.63,0,*52
1485871630.47,40534,11.19,73220.8,-1.93,-23.75,-20.59,0,*50
1485871631.71,40535,11.19,73220.5,-1.93,-23.75,-20.53,0,*5B
1485871632.95,40536,11.19,73220.3,-1.91,-23.79,-20.63,0,*55
1485871634.16,40537,11.19,73222.0,-1.93,-23.75,-20.63,0,*5A
1485871635.38,40538,11.19,73220.8,-1.93,-23.75,-20.63,0,*55
1485871636.64,40539,11.19,73222.0,-1.91,-23.65,-20.59,0,*5E
1485871637.89,40540,11.19,73218.5,-1.91,-23.75,-20.59,0,*51
1485871639.12,40541,11.19,73220.0,-1.91,-23.79,-20.63,0,*55
1485871640.37,40542,11.19,73220.8,-1.91,-23.75,-20.63,0,*5A
1485871641.63,40543,11.19,73220.8,-1.91,-24.11,-20.93,0,*51
1485871642.89,40544,11.19,73218.8,-1.91,-24.05,-21.03,0,*5B
1485871644.13,40545,11.19,73220.0,-1.91,-24.05,-20.93,0,*52
1485871645.37,40546,11.19,73220.5,-1.89,-23.85,-20.73,0,*59
1485871646.6,40547,11.19,73218.0,-1.89,-23.85,-20.73,0,*58
1485871647.83,40548,11.19,73218.8,-1.89,-23.85,-20.73,0,*57
1485871649.12,40549,11.19,73222.8,-1.87,-23.53,-20.49,0,*5A
1485871650.39,40550,11.19,73216.3,-1.89,-23.53,-20.49,0,*5C
1485871651.65,40551,11.19,73220.5,-1.87,-23.43,-20.35,0,*59
1485871652.89,40552,11.19,73222.3,-1.87,-23.43,-20.43,0,*5B
1485871654.15,40553,11.19,73220.0,-1.87,-23.49,-20.43,0,*50
1485871655.44,40554,11.19,73222.0,-1.87,-23.53,-20.49,0,*56
1485871656.72,40555,11.19,73218.8,-1.87,-23.53,-20.49,0,*57
1485871658.01,40556,11.19,73220.8,-1.87,-23.65,-20.53,0,*5A
1485871659.27,40557,11.19,73218.5,-1.85,-23.53,-20.49,0,*57
1485871660.54,40558,11.19,73220.0,-1.83,-23.59,-20.49,0,*54
1485871661.8,40559,11.19,73226.5,-1.85,-23.53,-20.49,0,*59
1485871663.07,40560,11.19,73220.8,-1.85,-23.53,-20.49,0,*53
1485871664.29,40561,11.19,73222.8,-1.85,-23.69,-20.69,0,*59
1485871665.55,40562,11.19,73222.0,-1.85,-23.65,-20.49,0,*54
1485871666.8,40563,11.19,73220.5,-1.83,-23.59,-20.59,0,*5D
1485871668.03,40564,11.19,73222.3,-1.85,-23.65,-20.63,0,*5A
1485871669.28,40565,11.19,73220.8,-1.83,-23.75,-20.73,0,*5D
1485871670.52,40566,11.19,73222.0,-1.83,-23.59,-20.59,0,*58
1485871671.75,40567,11.19,73220.8,-1.81,-23.65,-20.63,0,*5D
1485871672.96,40568,11.19,73220.8,-1.81,-23.79,-20.73,0,*5E
1485871674.2,40569,11.19,73220.0,-1.81,-23.75,-20.79,0,*59
1485871675.44,40570,11.19,73222.0,-1.83,-23.79,-20.73,0,*55
1485871676.72,40571,11.19,73220.3,-1.83,-23.65,-20.79,0,*53
1485871677.94,40572,11.19,73220.3,-1.81,-23.89,-20.89,0,*5F
1485871679.18,40573,11.19,73220.3,-1.83,-23.75,-20.73,0,*5A
1485871680.43,40574,11.19,73222.3,-1.83,-23.75,-20.63,0,*5C
1485871681.66,40575,11.19,73220.0,-1.81,-23.65,-20.59,0,*57
1485871682.9,40576,11.19,73220.3,-1.81,-23.65,-20.73,0,*5C
1485871684.19,40577,11.19,73226.3,-1.77,-23.53,-20.53,0,*53
1485871685.43,40578,11.19,73222.8,-1.81,-23.65,-20.59,0,*5A
1485871686.72,40579,11.19,73224.0,-1.77,-23.49,-20.35,0,*56
1485871687.95,40580,11.19,73224.3,-1.77,-23.39,-20.29,0,*5A
1485871689.25,40581,11.19,73220.3,-1.77,-23.53,-20.49,0,*51
1485871690.51,40582,11.19,73220.3,-1.77,-23.39,-20.19,0,*5B
1485871691.8,40583,11.19,73220.0,-1.77,-23.33,-20.19,0,*50
1485871693.03,40584,11.19,73222.8,-1.75,-23.39,-20.19,0,*5F
1485871694.26,40585,11.19,73226.5,-1.75,-23.39,-20.35,0,*50
1485871695.52,40586,11.19,73220.0,-1.77,-23.39,-20.35,0,*51
1485871696.75,40587,11.19,73220.8,-1.75,-23.39,-20.35,0,*52
1485871698.02,40588,11.19,73220.3,-1.75,-23.33,-20.49,0,*5C
1485871699.25,40589,11.19,73220.8,-1.75,-23.39,-20.35,0,*5C
1485871700.5,40590,11.19,73220.8,-1.73,-23.29,-20.29,0,*5E